Location: Fours
(44.3167°N, 6.7000°E)
Time: 06:30:22
(UTC+00:00)

NOSS 3-3 (C) - Pass Details

Date: 30 November 2020
Orbit: 820 x 1392 km, 63.4° (Epoch: 22 January)

Event Time Altitude Azimuth Distance (km) Brightness Sun altitude
Rises 18:16:59 0° 323° (NW) 3,961 7.6 -24.6°
Reaches altitude 10° 18:19:34 10° 325° (NW) 3,077 6.9 -25.1°
Maximum altitude 18:27:06 74° 51° (NE) 1,321 4.4 -26.4°
Enters shadow 18:29:57 45° 124° (SE) 1,729 4.9 -26.9°
